ASA580 KSFO-KSEA

Flight info

Callsign ASA580
Flight time N/A
Altitude 38000
Route TRUKN2 DEDHD RBL LMT HAWKZ8
Aircraft B738/M-SDGIRW/LB1

Departure

Time 2026-05-05 20:06
Airport San Francisco International Airport (KSFO)

Arrival

Time N/A
Airport Seattle–Tacoma International Airport (KSEA)
Time Latitude Longitude Altitude Speed Heading
2026-05-05 19:41 37.61243 -122.38578 21 ft 0 kts 118°
2026-05-05 19:51 37.61245 -122.38583 21 ft 4 kts 118°
2026-05-05 19:54 37.61251 -122.38596 21 ft 4 kts 118°
2026-05-05 19:54 37.61263 -122.38626 24 ft 4 kts 117°
2026-05-05 19:54 37.61276 -122.38656 22 ft 4 kts 123°
2026-05-05 19:54 37.61292 -122.38684 21 ft 4 kts 132°
2026-05-05 19:55 37.61312 -122.38705 22 ft 4 kts 158°
2026-05-05 19:55 37.61330 -122.38708 24 ft 1 kts 207°
2026-05-05 19:55 37.61334 -122.38706 25 ft 0 kts 207°
2026-05-05 19:58 37.61305 -122.38725 22 ft 8 kts 208°
2026-05-05 19:59 37.61252 -122.38761 22 ft 9 kts 208°
2026-05-05 19:59 37.61224 -122.38779 21 ft 8 kts 208°
2026-05-05 19:59 37.61173 -122.38813 21 ft 8 kts 207°
2026-05-05 19:59 37.61122 -122.38847 21 ft 10 kts 207°
2026-05-05 20:00 37.61030 -122.38908 21 ft 16 kts 208°
2026-05-05 20:00 37.60938 -122.38888 22 ft 15 kts 123°
2026-05-05 20:00 37.60877 -122.38749 21 ft 21 kts 118°
2026-05-05 20:00 37.60808 -122.38586 22 ft 21 kts 118°
2026-05-05 20:01 37.60699 -122.38488 21 ft 20 kts 166°
2026-05-05 20:01 37.60601 -122.38372 21 ft 19 kts 129°
2026-05-05 20:01 37.60517 -122.38230 22 ft 22 kts 118°
2026-05-05 20:01 37.60514 -122.38046 22 ft 21 kts 80°
2026-05-05 20:02 37.60613 -122.37923 22 ft 27 kts 27°
2026-05-05 20:02 37.60891 -122.37740 21 ft 49 kts 28°
2026-05-05 20:02 37.61184 -122.37545 22 ft 46 kts 27°
2026-05-05 20:02 37.61462 -122.37362 22 ft 42 kts 27°
2026-05-05 20:03 37.61545 -122.37096 22 ft 35 kts 114°
2026-05-05 20:03 37.61413 -122.36851 21 ft 33 kts 133°
2026-05-05 20:03 37.61293 -122.36609 22 ft 32 kts 117°
2026-05-05 20:03 37.61197 -122.36380 22 ft 23 kts 118°
2026-05-05 20:04 37.61122 -122.36203 22 ft 23 kts 118°
2026-05-05 20:04 37.61055 -122.36041 21 ft 20 kts 111°
2026-05-05 20:04 37.61096 -122.35906 22 ft 8 kts 28°
2026-05-05 20:04 37.61108 -122.35898 23 ft 14 kts 27°
2026-05-05 20:05 37.61186 -122.35867 21 ft 3 kts 297°
2026-05-05 20:05 37.61196 -122.35893 21 ft 4 kts 297°
2026-05-05 20:05 37.61207 -122.35919 21 ft 3 kts 297°
2026-05-05 20:05 37.61211 -122.35929 21 ft 11 kts 297°
2026-05-05 20:06 37.61388 -122.36353 21 ft 97 kts 298°
2026-05-05 20:06 37.61814 -122.37364 118 ft 156 kts 296°
2026-05-05 20:06 37.62359 -122.38625 840 ft 169 kts 297°
2026-05-05 20:06 37.62951 -122.39982 1656 ft 187 kts 310°
2026-05-05 20:07 37.64117 -122.40823 2239 ft 213 kts 350°
2026-05-05 20:07 37.65609 -122.40421 2757 ft 231 kts 33°
2026-05-05 20:07 37.66567 -122.38810 3603 ft 236 kts 70°
2026-05-05 20:07 37.66974 -122.36788 4401 ft 240 kts 73°
2026-05-05 20:08 37.67425 -122.34737 5127 ft 244 kts 70°
2026-05-05 20:08 37.67957 -122.32721 5910 ft 245 kts 68°
2026-05-05 20:08 37.68576 -122.30696 6628 ft 249 kts 65°
2026-05-05 20:08 37.69248 -122.28671 7368 ft 250 kts 64°
2026-05-05 20:09 37.69940 -122.26659 8143 ft 249 kts 63°
2026-05-05 20:09 37.70640 -122.24653 8885 ft 250 kts 62°
2026-05-05 20:09 37.71459 -122.22729 9618 ft 247 kts 46°
2026-05-05 20:09 37.72831 -122.21489 10358 ft 242 kts 23°
2026-05-05 20:10 37.74454 -122.20906 11013 ft 243 kts 10°
2026-05-05 20:10 37.76140 -122.20603 11641 ft 246 kts
2026-05-05 20:10 37.77833 -122.20351 12251 ft 249 kts
2026-05-05 20:10 37.79561 -122.20098 12890 ft 251 kts
2026-05-05 20:11 37.81305 -122.19838 13505 ft 253 kts
2026-05-05 20:11 37.83060 -122.19570 14108 ft 255 kts
2026-05-05 20:11 37.84834 -122.19294 14637 ft 258 kts
2026-05-05 20:11 37.86622 -122.19012 15189 ft 260 kts
2026-05-05 20:12 37.88428 -122.18723 15749 ft 262 kts
2026-05-05 20:12 37.90241 -122.18431 16318 ft 264 kts
2026-05-05 20:12 37.92056 -122.18137 16819 ft 267 kts
2026-05-05 20:12 37.93913 -122.17835 17342 ft 270 kts
2026-05-05 20:13 37.95780 -122.17531 17918 ft 271 kts
2026-05-05 20:13 37.97661 -122.17223 18434 ft 274 kts
2026-05-05 20:13 37.99560 -122.16912 18890 ft 275 kts
2026-05-05 20:13 38.01468 -122.16599 19357 ft 277 kts
2026-05-05 20:14 38.03385 -122.16284 19806 ft 279 kts
2026-05-05 20:14 38.05322 -122.15966 20252 ft 281 kts
2026-05-05 20:14 38.07265 -122.15647 20687 ft 283 kts
2026-05-05 20:14 38.09222 -122.15325 21120 ft 284 kts
2026-05-05 20:15 38.11189 -122.15001 21559 ft 286 kts 10°
2026-05-05 20:15 38.13171 -122.14675 21954 ft 288 kts 10°
2026-05-05 20:15 38.15165 -122.14346 22365 ft 290 kts 10°
2026-05-05 20:15 38.17174 -122.14015 22772 ft 292 kts 10°
2026-05-05 20:16 38.19195 -122.13681 23191 ft 294 kts 10°
2026-05-05 20:16 38.21203 -122.13350 23589 ft 295 kts 10°
2026-05-05 20:16 38.23250 -122.13012 23926 ft 297 kts 11°
2026-05-05 20:16 38.25300 -122.12673 24267 ft 298 kts 11°
2026-05-05 20:17 38.27357 -122.12333 24608 ft 298 kts 11°
2026-05-05 20:17 38.29427 -122.11991 24926 ft 299 kts 12°
2026-05-05 20:17 38.31497 -122.11648 25245 ft 300 kts 12°
2026-05-05 20:17 38.33583 -122.11342 25553 ft 303 kts
2026-05-05 20:18 38.35717 -122.11371 25856 ft 308 kts
2026-05-05 20:18 38.37859 -122.11513 26140 ft 310 kts
2026-05-05 20:18 38.39287 -122.11619 26336 ft 310 kts
2026-05-05 20:18 38.41444 -122.11783 26601 ft 311 kts
2026-05-05 20:19 38.43616 -122.11946 26874 ft 312 kts
2026-05-05 20:19 38.46498 -122.12156 27235 ft 314 kts
2026-05-05 20:19 38.47972 -122.12261 27411 ft 314 kts
2026-05-05 20:19 38.50160 -122.12416 27668 ft 315 kts
2026-05-05 20:20 38.52358 -122.12570 27887 ft 317 kts
2026-05-05 20:20 38.54570 -122.12722 28085 ft 319 kts
2026-05-05 20:20 38.56793 -122.12875 28279 ft 321 kts
2026-05-05 20:20 38.59021 -122.13030 28495 ft 320 kts
2026-05-05 20:21 38.61214 -122.13183 28728 ft 320 kts
2026-05-05 20:21 38.63445 -122.13336 28951 ft 322 kts
2026-05-05 20:21 38.65687 -122.13489 29167 ft 323 kts
2026-05-05 20:21 38.67942 -122.13643 29412 ft 324 kts
2026-05-05 20:22 38.70199 -122.13799 29639 ft 325 kts
2026-05-05 20:22 38.72464 -122.13954 29832 ft 326 kts
2026-05-05 20:22 38.74736 -122.14111 30031 ft 327 kts
2026-05-05 20:22 38.77011 -122.14267 30205 ft 328 kts
2026-05-05 20:23 38.79294 -122.14425 30366 ft 328 kts
2026-05-05 20:23 38.81575 -122.14583 30524 ft 328 kts
2026-05-05 20:23 38.83856 -122.14742 30677 ft 328 kts
2026-05-05 20:23 38.86140 -122.14900 30823 ft 329 kts
2026-05-05 20:24 38.88437 -122.15058 30964 ft 331 kts
2026-05-05 20:24 38.90707 -122.15214 31127 ft 331 kts
2026-05-05 20:24 38.93008 -122.15373 31264 ft 331 kts
2026-05-05 20:24 38.95310 -122.15533 31398 ft 332 kts
2026-05-05 20:25 38.97621 -122.15693 31529 ft 333 kts
2026-05-05 20:25 38.99937 -122.15854 31672 ft 333 kts
2026-05-05 20:25 39.02255 -122.16015 31809 ft 333 kts
2026-05-05 20:25 39.04572 -122.16175 31940 ft 334 kts
2026-05-05 20:26 39.06897 -122.16337 32059 ft 335 kts
2026-05-05 20:26 39.09229 -122.16499 32174 ft 335 kts
2026-05-05 20:26 39.11559 -122.16661 32267 ft 336 kts
2026-05-05 20:27 39.16239 -122.16986 32468 ft 337 kts
2026-05-05 20:27 39.18582 -122.17150 32577 ft 337 kts
2026-05-05 20:27 39.20926 -122.17313 32678 ft 338 kts
2026-05-05 20:28 39.25622 -122.17641 32867 ft 338 kts
2026-05-05 20:28 39.30301 -122.17968 33022 ft 339 kts
2026-05-05 20:29 39.35039 -122.18299 33173 ft 341 kts
2026-05-05 20:29 39.39786 -122.18632 33327 ft 342 kts
2026-05-05 20:30 39.44533 -122.18965 33480 ft 342 kts
2026-05-05 20:30 39.49294 -122.19300 33616 ft 343 kts
2026-05-05 20:31 39.54074 -122.19636 33727 ft 344 kts
2026-05-05 20:31 39.58862 -122.19974 33856 ft 345 kts
2026-05-05 20:32 39.63662 -122.20312 33968 ft 345 kts
2026-05-05 20:32 39.68465 -122.20652 34067 ft 346 kts
2026-05-05 20:33 39.73254 -122.20990 34145 ft 347 kts
2026-05-05 20:33 39.78084 -122.21333 34246 ft 347 kts
2026-05-05 20:34 39.82919 -122.21676 34318 ft 348 kts
2026-05-05 20:34 39.87765 -122.22020 34376 ft 349 kts
2026-05-05 20:35 39.92625 -122.22366 34432 ft 350 kts
2026-05-05 20:35 39.97458 -122.22711 34509 ft 350 kts
2026-05-05 20:36 40.02327 -122.23058 34583 ft 350 kts
2026-05-05 20:36 40.07204 -122.23407 34638 ft 351 kts
2026-05-05 20:37 40.12030 -122.23162 34694 ft 344 kts 14°
2026-05-05 20:37 40.16742 -122.22021 34758 ft 344 kts 15°
2026-05-05 20:38 40.21450 -122.20857 34803 ft 345 kts 15°
2026-05-05 20:38 40.26172 -122.19703 34822 ft 346 kts 14°
2026-05-05 20:39 40.30912 -122.18554 34858 ft 346 kts 14°
2026-05-05 20:39 40.35658 -122.17407 34917 ft 347 kts 14°
2026-05-05 20:40 40.40406 -122.16259 34981 ft 346 kts 14°
2026-05-05 20:40 40.45122 -122.15117 35000 ft 347 kts 14°
2026-05-05 20:41 40.49884 -122.13963 35013 ft 348 kts 14°
2026-05-05 20:41 40.54656 -122.12805 35056 ft 349 kts 14°
2026-05-05 20:42 40.59425 -122.11646 35100 ft 349 kts 14°
2026-05-05 20:42 40.64207 -122.10482 35142 ft 349 kts 14°
2026-05-05 20:43 40.68991 -122.09315 35138 ft 350 kts 14°
2026-05-05 20:43 40.73786 -122.08145 35144 ft 351 kts 14°
2026-05-05 20:44 40.78595 -122.06969 35175 ft 351 kts 14°